| time (UTC) | temp F | wind direction | speed MPH | gust MPH | rain 1hr in | rain 24hr in | rain mn in | humidity % | barometer mb |
| 20260507003036 | 62 | 277 | 1.0 | 12.0 | 0.00 | 0.00 | 0.00 | 77 | 1019.7 |
| 20260507001537 | 63 | 352 | 3.0 | 10.0 | 0.00 | 0.00 | 0.00 | 74 | 1019.6 |
| 20260507000036 | 64 | 347 | 1.0 | 13.0 | 0.00 | 0.00 | 0.00 | 74 | 1019.5 |
| 20260506234537 | 64 | 300 | 3.0 | 12.0 | 0.00 | 0.00 | 0.00 | 74 | 1019.5 |
| 20260506233054 | 63 | 207 | 2.0 | 14.0 | 0.00 | 0.00 | 0.00 | 77 | 1019.5 |
| 20260506231539 | 63 | 236 | 2.0 | 13.0 | 0.00 | 0.00 | 0.00 | 76 | 1019.4 |
| 20260506230036 | 64 | 294 | 4.0 | 11.0 | 0.00 | 0.00 | 0.00 | 74 | 1019.6 |
| 20260506224535 | 64 | 328 | 2.0 | 10.0 | 0.00 | 0.00 | 0.00 | 74 | 1019.7 |
| 20260506223036 | 64 | 0 | 2.0 | 10.0 | 0.00 | 0.00 | 0.00 | 75 | 1019.7 |
| 20260506221536 | 63 | 223 | 2.0 | 10.0 | 0.00 | 0.00 | 0.00 | 75 | 1020.0 |
| 20260506220039 | 63 | 304 | 5.0 | 11.0 | 0.00 | 0.00 | 0.00 | 75 | 1020.2 |
| 20260506214535 | 65 | 234 | 2.0 | 11.0 | 0.00 | 0.00 | 0.00 | 75 | 1020.2 |
| 20260506213036 | 64 | 284 | 4.0 | 10.0 | 0.00 | 0.00 | 0.00 | 73 | 1020.3 |
| 20260506211535 | 65 | 15 | 1.0 | 11.0 | 0.00 | 0.00 | 0.00 | 74 | 1020.4 |
| 20260506210039 | 65 | 309 | 2.0 | 13.0 | 0.00 | 0.00 | 0.00 | 74 | 1020.4 |
| 20260506204539 | 65 | 0 | 3.0 | 10.0 | 0.00 | 0.00 | 0.00 | 74 | 1020.3 |
| 20260506203036 | 65 | 0 | 3.0 | 10.0 | 0.00 | 0.00 | 0.00 | 73 | 1020.4 |
| 20260506201537 | 64 | 360 | 3.0 | 13.0 | 0.00 | 0.00 | 0.00 | 73 | 1020.3 |
| 20260506200041 | 65 | 265 | 4.0 | 13.0 | 0.00 | 0.00 | 0.00 | 72 | 1020.4 |
| 20260506194530 | 64 | 250 | 3.0 | 13.0 | 0.00 | 0.00 | 0.00 | 74 | 1020.4 |
| 20260506193036 | 64 | 319 | 3.0 | 12.0 | 0.00 | 0.00 | 0.00 | 73 | 1020.4 |
| 20260506191535 | 64 | 315 | 3.0 | 13.0 | 0.00 | 0.00 | 0.00 | 73 | 1020.6 |
| 20260506190036 | 64 | 321 | 2.0 | 9.0 | 0.00 | 0.00 | 0.00 | 74 | 1020.6 |
| 20260506184535 | 64 | 300 | 2.0 | 12.0 | 0.00 | 0.00 | 0.00 | 76 | 1020.6 |
| 20260506183037 | 63 | 271 | 2.0 | 13.0 | 0.00 | 0.00 | 0.00 | 76 | 1020.5 |
| 20260506181536 | 62 | 275 | 5.0 | 14.0 | 0.00 | 0.00 | 0.00 | 77 | 1020.6 |
| 20260506180041 | 62 | 311 | 4.0 | 14.0 | 0.00 | 0.00 | 0.00 | 76 | 1020.4 |
| 20260506174536 | 63 | 286 | 4.0 | 15.0 | 0.00 | 0.00 | 0.00 | 75 | 1020.3 |
| 20260506173042 | 64 | 309 | 2.0 | 10.0 | 0.00 | 0.00 | 0.00 | 76 | 1020.3 |
| 20260506171544 | 63 | 0 | 1.0 | 14.0 | 0.00 | 0.00 | 0.00 | 77 | 1020.2 |
| 20260506170037 | 64 | 98 | 1.0 | 9.0 | 0.00 | 0.00 | 0.00 | 76 | 1020.3 |
| 20260506164547 | 65 | 296 | 0.0 | 5.0 | 0.00 | 0.00 | 0.00 | 78 | 1020.3 |
| 20260506163035 | 63 | 360 | 1.0 | 4.0 | 0.00 | 0.00 | 0.00 | 81 | 1020.3 |
| 20260506161535 | 61 | 0 | 1.0 | 4.0 | 0.00 | 0.00 | 0.00 | 86 | 1020.4 |
| 20260506160037 | 59 | 83 | 0.0 | 5.0 | 0.00 | 0.00 | 0.00 | 89 | 1020.3 |
| 20260506154532 | 57 | 0 | 0.0 | 0.0 | 0.00 | 0.00 | 0.00 | 90 | 1020.3 |
| 20260506153036 | 56 | 0 | 0.0 | 0.0 | 0.00 | 0.00 | 0.00 | 91 | 1020.4 |
| 20260506151535 | 56 | 0 | 0.0 | 0.0 | 0.00 | 0.00 | 0.00 | 91 | 1020.4 |
| 20260506150036 | 55 | 0 | 0.0 | 0.0 | 0.00 | 0.00 | 0.00 | 91 | 1020.5 |
| 20260506144539 | 56 | 0 | 0.0 | 0.0 | 0.00 | 0.00 | 0.00 | 92 | 1020.6 |
| 20260506143037 | 55 | 0 | 0.0 | 0.0 | 0.00 | 0.00 | 0.00 | 92 | 1020.5 |
| 20260506141549 | 53 | 0 | 0.0 | 0.0 | 0.00 | 0.00 | 0.00 | 92 | 1020.4 |
| 20260506140035 | 53 | 0 | 0.0 | 0.0 | 0.00 | 0.00 | 0.00 | 92 | 1020.3 |
| 20260506134535 | 52 | 0 | 0.0 | 0.0 | 0.00 | 0.00 | 0.00 | 91 | 1020.1 |
| 20260506133036 | 51 | 0 | 0.0 | 0.0 | 0.00 | 0.00 | 0.00 | 91 | 1020.0 |
| 20260506131539 | 51 | 0 | 0.0 | 0.0 | 0.00 | 0.00 | 0.00 | 91 | 1019.9 |
| 20260506130035 | 51 | 0 | 0.0 | 0.0 | 0.00 | 0.00 | 0.00 | 91 | 1019.7 |
| 20260506124539 | 51 | 0 | 0.0 | 0.0 | 0.00 | 0.00 | 0.00 | 90 | 1019.7 |
| 20260506123056 | 51 | 0 | 0.0 | 0.0 | 0.00 | 0.00 | 0.00 | 91 | 1019.6 |
| 20260506121534 | 51 | 0 | 0.0 | 0.0 | 0.00 | 0.00 | 0.00 | 90 | 1019.6 |
| 20260506120104 | 51 | 0 | 0.0 | 0.0 | 0.00 | 0.00 | 0.00 | 90 | 1019.5 |
| 20260506114536 | 51 | 0 | 0.0 | 0.0 | 0.00 | 0.00 | 0.00 | 90 | 1019.5 |
| 20260506113035 | 52 | 0 | 0.0 | 0.0 | 0.00 | 0.00 | 0.00 | 90 | 1019.5 |
| 20260506111537 | 52 | 0 | 0.0 | 0.0 | 0.00 | 0.00 | 0.00 | 90 | 1019.5 |
| 20260506110038 | 52 | 0 | 0.0 | 0.0 | 0.00 | 0.00 | 0.00 | 90 | 1019.4 |
| 20260506104538 | 52 | 0 | 0.0 | 0.0 | 0.00 | 0.00 | 0.00 | 90 | 1019.5 |
| 20260506103037 | 52 | 0 | 0.0 | 0.0 | 0.00 | 0.00 | 0.00 | 89 | 1019.4 |
| 20260506101536 | 52 | 0 | 0.0 | 0.0 | 0.00 | 0.00 | 0.00 | 89 | 1019.5 |
| 20260506100035 | 52 | 0 | 0.0 | 0.0 | 0.00 | 0.00 | 0.00 | 89 | 1019.5 |
| 20260506094545 | 52 | 0 | 0.0 | 0.0 | 0.00 | 0.00 | 0.00 | 89 | 1019.7 |
| 20260506093044 | 52 | 0 | 0.0 | 0.0 | 0.00 | 0.00 | 0.00 | 88 | 1019.6 |
| 20260506091536 | 52 | 0 | 0.0 | 0.0 | 0.00 | 0.00 | 0.00 | 88 | 1019.6 |
| 20260506090035 | 53 | 0 | 0.0 | 0.0 | 0.00 | 0.00 | 0.00 | 88 | 1019.6 |
| 20260506084536 | 53 | 0 | 0.0 | 0.0 | 0.00 | 0.00 | 0.00 | 88 | 1019.5 |
| 20260506083036 | 53 | 0 | 0.0 | 0.0 | 0.00 | 0.00 | 0.00 | 88 | 1019.4 |
| 20260506081537 | 54 | 0 | 0.0 | 0.0 | 0.00 | 0.00 | 0.00 | 88 | 1019.5 |
| 20260506073036 | 54 | 0 | 0.0 | 0.0 | 0.00 | 0.00 | 0.00 | 87 | 1019.3 |
| 20260506071544 | 54 | 0 | 0.0 | 0.0 | 0.00 | 0.00 | 0.00 | 86 | 1019.3 |
| 20260506061537 | 56 | 0 | 0.0 | 0.0 | 0.00 | 0.00 | 0.00 | 85 | 1019.0 |
| 20260506044550 | 57 | 0 | 0.0 | 0.0 | 0.00 | 0.00 | 0.00 | 84 | 1018.5 |
| 20260506043035 | 57 | 0 | 0.0 | 0.0 | 0.00 | 0.00 | 0.00 | 84 | 1018.4 |
| 20260506041547 | 57 | 0 | 0.0 | 0.0 | 0.00 | 0.00 | 0.00 | 83 | 1018.3 |
| 20260506040042 | 57 | 0 | 0.0 | 0.0 | 0.00 | 0.00 | 0.00 | 83 | 1018.2 |
| 20260506034535 | 57 | 0 | 0.0 | 0.0 | 0.00 | 0.00 | 0.00 | 83 | 1018.0 |
| 20260506033034 | 57 | 0 | 0.0 | 0.0 | 0.00 | 0.00 | 0.00 | 83 | 1017.8 |
| 20260506031534 | 57 | 0 | 0.0 | 0.0 | 0.00 | 0.00 | 0.00 | 82 | 1017.6 |
| 20260506030046 | 57 | 0 | 0.0 | 2.0 | 0.00 | 0.00 | 0.00 | 82 | 1017.4 |
| 20260506024538 | 58 | 5 | 0.0 | 2.0 | 0.00 | 0.00 | 0.00 | 81 | 1017.4 |
| 20260506023037 | 58 | 0 | 0.0 | 5.0 | 0.00 | 0.00 | 0.00 | 80 | 1017.5 |
| 20260506021534 | 58 | 294 | 1.0 | 6.0 | 0.00 | 0.00 | 0.00 | 79 | 1017.3 |
| 20260506020035 | 58 | 0 | 0.0 | 5.0 | 0.00 | 0.00 | 0.00 | 79 | 1017.2 |
| 20260506014536 | 58 | 0 | 1.0 | 4.0 | 0.00 | 0.00 | 0.00 | 77 | 1017.2 |
| 20260506013041 | 59 | 5 | 0.0 | 5.0 | 0.00 | 0.00 | 0.00 | 77 | 1017.2 |
| 20260506011535 | 59 | 0 | 1.0 | 6.0 | 0.00 | 0.00 | 0.00 | 75 | 1017.2 |
| 20260506010035 | 60 | 0 | 2.0 | 8.0 | 0.00 | 0.00 | 0.00 | 75 | 1017.1 |
| 20260506004604 | 61 | 252 | 2.0 | 7.0 | 0.00 | 0.00 | 0.00 | 76 | 1017.1 |